Regional Weather Roundup
Issued by NWS

Home | Current Version | Previous Version | Graphics & Text | Print | Product List | Glossary On
Versions: 1 2 3 4 5 6 7 8 9 10 11 12 13 14 15 16 17 18 19 20 21 22 23 24 25 26 27 28 29 30 31 32 33 34 35 36 37 38 39 40 41 42 43 44 45 46 47 48 49 50
000
ASUS45 KSLC 180110
RWRUT

UTAH REGIONAL WEATHER ROUNDUP
NATIONAL WEATHER SERVICE SALT LAKE CITY UT
600 PM MST SUN DEC 17 2017

UTZ001>011-023>025-180200-

NORTHERN UTAH

CITY           SKY/WX    TMP DP  RH WIND       PRES   REMARKS
BRIGHAM CITY   CLOUDY    31  23  72 SE3       30.25R
HILL AFB       PTCLDY    27  22  81 CALM      30.22R
LOGAN          CLOUDY    32  21  64 CALM      30.22R
OGDEN          MOCLDY    29  22  75 W3        30.22R
SALT LAKE CITY PTCLDY    31  24  75 W6        30.23R WCI  25
TOOELE VALLEY  PTCLDY    19  18  93 CALM      30.24S
WENDOVER       MOCLDY    28  17  63 CALM      30.24R
HEBER CITY       N/A     23  14  68 E5        30.16R WCI  17
WEST JORDAN    PTCLDY    28  23  82 W5        30.22S WCI  23

$$

UTZ011>015-024>027-180200-

CENTRAL/NORTHEAST UTAH

CITY           SKY/WX    TMP DP  RH WIND       PRES   REMARKS
PROVO AIRPORT  PTCLDY    30  24  78 NW8       30.23R WCI  22
MOAB/CANYONLAN CLEAR     32   9  38 VRB3      30.06R
DELTA          PTCLDY    30  19  64 N3        30.22R
PRICE          MOCLDY    33  15  47 NW13      30.09R WCI  24
RICHFIELD      CLOUDY    30  18  59 N6        30.20R WCI  24
ROOSEVELT      CLOUDY    32  18  55 SW5       30.12R WCI  27
VERNAL         CLOUDY    27  14  58 CALM      30.09R

$$

UTZ013>016-019>022-027-180200-

SOUTHERN UTAH

CITY           SKY/WX    TMP DP  RH WIND       PRES   REMARKS
BRYCE CANYON   PTCLDY    26  15  63 N7        30.10R WCI  18
CEDAR CITY     CLOUDY    29  19  66 N6        30.16R WCI  23
MILFORD        PTCLDY    24  18  77 N8        30.19R WCI  15
ST GEORGE      PTCLDY    46  21  37 E10       30.10R
HANKSVILLE     CLEAR     32  10  40 CALM      30.09R
KANAB          CLEAR     36  10  35 NE5       30.09R WCI  32
BLANDING         N/A     36   4  25 CALM      30.10R

$$

REGIONAL REPORTS     COLORADO/ARIZONA

CITY           SKY/WX    TMP DP  RH WIND       PRES   REMARKS
CRAIG, CO      CLOUDY    21  14  74 E3        30.08R
GRAND JUNCTION CLEAR     34  10  37 N9        30.06R WCI  27
RIFLE, CO      CLEAR     30   9  41 S5        30.06R WCI  25
MONTROSE, CO   CLEAR     29   5  36 S7        30.08R WCI  22
CORTEZ, CO     CLEAR     27   5  39 S5        30.04R WCI  22
COLORADO CITY    N/A     37  21  52 W9        30.09R WCI  31
PAGE, AZ       PTCLDY    40  16  37 CALM      30.05R
GRAND CANYON   PTCLDY    33   9  36 NE3       30.05R
KINGMAN, AZ    PTCLDY    45  19  35 NE10      30.02R
FLAGSTAFF, AZ  MOCLDY    35  13  40 E3        30.03R

$$

REGIONAL REPORTS    NEVADA/IDAHO/WYOMING

CITY           SKY/WX    TMP DP  RH WIND       PRES   REMARKS
LAS VEGAS, NV  PTCLDY    54  17  23 N15       30.08R
ELY, NY        PTCLDY    25  13  60 N6        30.15R WCI  18
ELKO, NV       MOCLDY    27  18  69 SW5       30.21R WCI  22
POCATELLO, ID  CLOUDY    23  17  78 E5        30.22S WCI  17
BURLEY, ID     CLOUDY    34  20  56 W3        30.19S
FORT BRIDGER,    N/A     25  17  71 W14       30.11R WCI  13
EVANSTON, WY   CLOUDY    22  15  75 SW12      30.12R WCI  10
ROCK SPRINGS,  CLOUDY    23  13  65 W23G33    30.04R WCI   7

$$



USA.gov is the U.S. government's official web portal to all federal, state and local government web resources and services.